Location: Wapato
(46.4478°N, 120.4212°W)
Time: 00:34:10
(UTC+00:00)

Transit 2A Rocket - All Passes

Search period start: 14 May 2026 00:00
Search period end: 24 May 2026 00:00
Orbit: 587 x 895 km, 66.7° (Epoch: 13 May)

Date Brightness Start Highest point End Pass type
(mag) Time Alt. Az. Time Alt. Az. Time Alt. Az.
14 May - 01:40:25 10° SE 01:42:52 13° ESE 01:45:16 10° ENE daylight
14 May - 03:18:50 10° SSW 03:24:32 78° ESE 03:29:48 10° NE daylight
14 May - 05:03:03 10° W 05:07:25 23° NW 05:11:32 10° NNE visible
14 May - 10:17:45 10° N 10:21:10 20° NE 10:24:26 10° E visible
14 May - 11:59:29 10° NW 12:04:04 74° WSW 12:08:22 10° SSE daylight
15 May - 02:33:28 10° S 02:38:52 46° ESE 02:43:55 10° NE daylight
15 May - 04:16:17 10° WSW 04:21:22 35° NW 04:26:06 10° NNE visible
15 May - 06:04:04 10° NW 06:05:13 11° NNW 06:06:22 10° N visible
15 May - 09:32:35 10° N 09:34:56 13° NNE 09:37:11 10° ENE visible
15 May - 11:13:46 10° NNW 11:18:20 60° NE 11:22:37 10° SE visible
15 May - 12:57:16 10° WNW 13:00:05 17° WSW 13:02:49 10° SSW daylight
16 May - 01:48:39 10° SSE 01:53:20 27° ESE 01:57:45 10° NE daylight
16 May - 03:29:56 10° SW 03:35:28 55° NW 03:40:34 10° NNE daylight
16 May - 05:15:55 10° WNW 05:18:52 15° NNW 05:21:43 10° N visible
16 May - 10:28:11 10° NNW 10:32:27 34° NE 10:36:27 10° ESE visible
16 May - 12:10:42 10° NW 12:14:41 31° WSW 12:18:30 10° S daylight
17 May - 01:04:45 10° SE 01:07:54 15° ESE 01:10:56 10° ENE daylight
17 May - 02:43:59 10° SSW 02:49:40 90° ESE 02:54:54 10° NE daylight
17 May - 04:28:35 10° W 04:32:39 21° NW 04:36:30 10° N visible
17 May - 09:42:47 10° NNW 09:46:23 22° NE 09:49:50 10° E visible
17 May - 11:24:39 10° NW 11:29:09 61° WSW 11:33:23 10° SSE visible
18 May - 01:58:29 10° SSW 02:03:59 53° ESE 02:09:05 10° NE daylight
18 May - 03:41:42 10° WSW 03:46:34 31° NW 03:51:07 10° NNE daylight
18 May - 08:57:33 10° N 09:00:12 15° NNE 09:02:44 10° ENE visible
18 May - 10:38:52 10° NNW 10:43:27 71° NE 10:47:45 10° SE visible
18 May - 12:22:52 10° WNW 12:25:05 14° WSW 12:27:14 10° SW daylight
19 May - 01:13:30 10° S 01:18:24 31° ESE 01:23:01 10° NE daylight
19 May - 02:55:14 10° SW 03:00:37 48° NW 03:05:37 10° NNE daylight
19 May - 04:41:40 10° WNW 04:44:09 13° NNW 04:46:33 10° N visible
19 May - 08:13:00 10° NNE 08:13:51 10° NNE 08:14:43 10° NE visible
19 May - 09:53:15 10° NNW 09:57:36 39° NE 10:01:41 10° ESE visible
19 May - 11:35:59 10° NW 11:39:42 26° WSW 11:43:17 10° SSW visible
20 May - 00:29:16 10° SSE 00:32:56 18° ESE 00:36:26 10° ENE daylight
20 May - 02:09:10 10° SW 02:14:48 79° NW 02:19:59 10° NNE daylight
20 May - 03:54:09 10° W 03:57:53 19° NW 04:01:27 10° N daylight
20 May - 09:07:48 10° NNW 09:11:36 24° NE 09:15:11 10° E visible
20 May - 10:49:50 10° NW 10:54:12 50° WSW 10:58:21 10° SSE visible
21 May - 01:23:31 10° SSW 01:29:05 62° ESE 01:34:13 10° NE daylight
21 May - 03:07:08 10° W 03:11:46 27° NW 03:16:06 10° NNE daylight
21 May - 08:22:31 10° N 08:25:26 16° NNE 08:28:14 10° ENE visible
21 May - 10:03:59 10° NNW 10:08:33 84° ENE 10:12:51 10° SE visible
21 May - 11:48:48 10° W 11:50:03 11° WSW 11:51:16 10° WSW visible
22 May - 00:38:23 10° S 00:43:28 36° ESE 00:48:13 10° NE daylight
22 May - 02:20:33 10° WSW 02:25:47 42° NW 02:30:39 10° NNE daylight
22 May - 04:07:29 10° NW 04:09:26 12° NNW 04:11:20 10° N visible
22 May - 07:37:39 10° N 07:39:08 11° NNE 07:40:36 10° NE visible
22 May - 09:18:19 10° NNW 09:22:44 46° NE 09:26:54 10° SE visible
22 May - 11:01:18 10° WNW 11:04:43 22° WSW 11:08:00 10° SSW visible
22 May - 23:53:54 10° SSE 23:57:58 21° ESE 00:01:50 10° ENE daylight
23 May - 01:34:21 10° SW 01:39:56 69° NW 01:45:03 10° NNE daylight
23 May - 03:19:45 10° WNW 03:23:08 17° NW 03:26:22 10° N daylight
23 May - 08:32:50 10° NNW 08:36:46 27° NE 08:40:31 10° ESE visible
23 May - 10:15:01 10° NW 10:19:14 41° WSW 10:23:16 10° S visible
23 May - 23:10:58 10° ESE 23:12:35 11° ESE 23:14:11 10° E daylight
